Location: ?????
(38.3715°N, 23.0573°E)
Time: 18:53:59
(UTC+00:00)

CZ-4B R/B - Pass Details

Date: 03 August 2024
Orbit: 807 x 881 km, 99.0° (Epoch: 18 September)

Event Time Altitude Azimuth Distance (km) Brightness Sun altitude
Rises 18:17:33 0° 165° (SSE) 3,442 5.9 -8.2°
Reaches altitude 10° 18:19:54 10° 165° (SSE) 2,516 5.3 -8.6°
Maximum altitude 18:25:32 90° 252° (WSW) 885 3.3 -9.6°
Drops below altitude 10° 18:31:14 10° 346° (NNW) 2,547 6.4 -10.5°
Sets 18:33:38 0° 347° (NNW) 3,488 7.2 -10.9°
